Location: Great Snoring
(52.8667°N, 0.8833°E)
Time: 01:32:56
(UTC+00:00)

Okean O Rocket - Visible Passes

Search period start: 16 May 2026 00:00
Search period end: 26 May 2026 00:00
Orbit: 613 x 635 km, 98.0° (Epoch: 15 May)

Date Brightness Start Highest point End Pass type
(mag) Time Alt. Az. Time Alt. Az. Time Alt. Az.
16 May 3.8 21:50:17 10° SW 21:53:26 20° W 21:56:37 10° NW visible
17 May 1.6 20:30:56 10° SSE 20:35:14 84° ENE 20:39:34 10° NNW visible
17 May 4.1 22:09:48 10° WSW 22:12:01 14° W 22:14:15 10° NW visible
18 May 1.9 20:49:20 10° S 20:53:36 67° WSW 20:57:55 10° NNW visible
19 May 2.5 21:07:54 10° S 21:12:01 45° W 21:16:11 10° NNW visible
20 May 3.1 21:26:40 10° SSW 21:30:29 31° W 21:34:21 10° NNW visible
21 May 3.7 21:45:40 10° SW 21:49:00 22° W 21:52:22 10° NW visible
22 May 4.1 22:05:02 10° SW 22:07:34 15° W 22:10:07 10° NW visible
23 May 1.8 20:44:55 10° S 20:49:12 74° WSW 20:53:33 10° NNW visible
23 May 4.4 22:25:35 10° W 22:26:10 10° W 22:26:47 10° WNW visible
24 May 2.4 21:03:25 10° S 21:07:36 50° W 21:11:50 10° NNW visible
25 May 3.0 21:22:08 10° SSW 21:26:03 34° W 21:30:01 10° NNW visible
